Location: Nelson
(41.2830°S, 173.2830°E)
Time: 04:28:15
(UTC+12:00)

Cosmos 2292 Rocket - Pass Details

Date: 14 May 2021
Orbit: 379 x 1447 km, 83.0° (Epoch: 17 June)

Event Time Altitude Azimuth Distance (km) Brightness Sun altitude
Rises 19:20:51 0° 345° (NNW) 2,611 7.0 -22.9°
Reaches altitude 10° 19:22:44 10° 341° (NNW) 1,840 6.3 -23.2°
Maximum altitude 19:26:43 62° 259° (W) 760 4.1 -24.0°
Drops below altitude 10° 19:32:07 10° 178° (S) 2,476 6.6 -25.0°
Sets 19:34:59 0° 175° (S) 3,612 7.4 -25.5°
